Content
SEND FEEDBACK

Daily
Averages
Monthly
Summary
United States of America

ADAMSVILLE, TEXAS


Home > North America > United States > Texas
Elevation: 1070 feet     Latitude: 31 18N     Longitude: 098 10W

WEATHER
 
SELECT A DAY
Number of Records: 90,661;   Date Range: 7/19/09 - 10/22/14
 
SHARE

PRINT THIS DATA

[ ← Previous Day ]
WEATHER ALMANAC - JANUARY 23, 2013
[ Next Day → ]
[ °C ]   °F
Weather ElementAverageHighLow
Temperature59.3 °F75.2 °F (2:15 pm)42.8 °F (7:35 am)
Dewpoint51.1 °F59 °F (5:15 pm)41 °F (7:35 am)
Humidity76.4 %100 % (6:15 am)47 % (2:55 pm)
Barometer30.23 in30.31 in (10:55 am)30.18 in (5:15 pm)
Wind Speed5 mph11.5 mph (12:15 pm)
Wind Gust18.4 mph (12:35 pm)
Weather ElementAverage
Visibility8.9 mi
Wind DirectionSSE (161.6 °)

Weather ElementTotal
Precipitation---
Heating Degree Days6 (Base 65)
Growing Degree Days9 (Base 50)
Averaged from 70 records on January 23, 2013
WEATHER CONDITIONS BREAKOUT
WIND DIRECTION BREAKOUT
WEATHER BY HOUR - JANUARY 23, 2013
[ °C ]   °F
Local TimeTemperatureDewpointHumidityBarometerVisibilityWind DirectionWind SpeedGust SpeedPrecipitationEventsConditions
12:35 AM51.8 °F48.2 °F88 %30.24 in10.0 miSSW (210°)4.6 mphClear
12:55 AM51.8 °F48.2 °F88 %30.24 in10.0 miSW (220°)3.5 mphClear
1:15 AM50.0 °F46.4 °F87 %30.24 in10.0 miSW (220°)3.5 mphClear
1:35 AM50.0 °F46.4 °F87 %30.24 in10.0 miSSW (200°)3.5 mphClear
1:55 AM51.8 °F48.2 °F88 %30.24 in10.0 miSouth (190°)4.6 mphClear
2:15 AM51.8 °F46.4 °F82 %30.25 in10.0 miSouth (180°)4.6 mphClear
2:35 AM50.0 °F46.4 °F87 %30.25 in10.0 miSouth (180°)4.6 mphClear
2:55 AM50.0 °F46.4 °F87 %30.24 in10.0 miSouth (180°)4.6 mphClear
3:15 AM50.0 °F46.4 °F87 %30.24 in10.0 miSouth (190°)3.5 mphClear
3:35 AM50.0 °F46.4 °F87 %30.24 in10.0 miSouth (180°)3.5 mphClear
3:55 AM50.0 °F46.4 °F87 %30.24 in10.0 miSouth (190°)3.5 mphClear
4:15 AM50.0 °F46.4 °F87 %30.24 in10.0 miCalmClear
4:35 AM50.0 °F48.2 °F94 %30.24 in10.0 miCalmClear
4:55 AM46.4 °F44.6 °F93 %30.24 in10.0 miSSE (160°)4.6 mphClear
5:15 AM50.0 °F48.2 °F94 %30.24 in10.0 miSouth (170°)4.6 mphClear
5:35 AM50.0 °F48.2 °F94 %30.24 in10.0 miSouth (190°)4.6 mphClear
5:55 AM46.4 °F44.6 °F93 %30.24 in4.0 miSouth (170°)3.5 mphClear
6:15 AM46.4 °F46.4 °F100 %30.24 in5.0 miSouth (180°)3.5 mphClear
6:35 AM46.4 °F46.4 °F100 %30.25 in3.0 miCalmClear
6:55 AM46.4 °F44.6 °F93 %30.26 in4.0 miCalmClear
7:15 AM44.6 °F42.8 °F93 %30.27 in2.5 miCalmClear
7:35 AM42.8 °F41.0 °F93 %30.27 in0.2 miCalmFogFog
7:55 AM42.8 °F42.8 °F100 %30.27 inCalm
8:15 AM44.6 °F42.8 °F93 %30.27 in0.2 miCalmFogFog
8:35 AM46.4 °F44.6 °F93 %30.28 in0.2 miCalmFogFog
8:55 AM50.0 °F50.0 °F100 %30.29 in2.5 miCalmMostly Cloudy
9:15 AM50.0 °F50.0 °F100 %30.29 in5.0 miCalmScattered Clouds
9:35 AM51.8 °F51.8 °F100 %30.29 in10.0 miSouth (170°)3.5 mphClear
9:55 AM53.6 °F51.8 °F94 %30.30 in10.0 miSouth (190°)3.5 mphClear
10:15 AM60.8 °F53.6 °F77 %30.30 in10.0 miSouth (190°)8.1 mphClear
10:35 AM60.8 °F51.8 °F72 %30.30 in10.0 miSouth (170°)6.9 mphClear
10:55 AM62.6 °F51.8 °F68 %30.31 in10.0 miSouth (170°)6.9 mphClear
11:15 AM62.6 °F51.8 °F68 %30.30 in10.0 miSouth (180°)8.1 mphClear
11:35 AM64.4 °F51.8 °F64 %30.29 in10.0 miSSW (200°)8.1 mphClear
11:55 AM68.0 °F53.6 °F60 %30.28 in10.0 miSSW (200°)10.4 mph16.1 mphClear
12:15 PM69.8 °F53.6 °F56 %30.27 in10.0 miSSW (200°)11.5 mph17.3 mphClear
12:35 PM69.8 °F53.6 °F56 %30.26 in10.0 miSW (220°)10.4 mph18.4 mphClear
12:55 PM69.8 °F53.6 °F56 %30.24 in10.0 miSSW (200°)10.4 mph16.1 mphClear
1:15 PM69.8 °F53.6 °F56 %30.23 in10.0 miSSW (210°)10.4 mphClear
1:35 PM71.6 °F53.6 °F53 %30.22 in10.0 miSSW (200°)9.2 mphClear
1:55 PM73.4 °F53.6 °F50 %30.20 in10.0 miSouth (190°)11.5 mph18.4 mphClear
2:15 PM75.2 °F55.4 °F50 %30.20 in10.0 miSSE (160°)10.4 mph17.3 mphClear
2:35 PM75.2 °F55.4 °F50 %30.19 in10.0 miSouth (180°)10.4 mphClear
2:55 PM75.2 °F53.6 °F47 %30.19 in10.0 miSSW (210°)11.5 mphClear
3:15 PM75.2 °F53.6 °F47 %30.19 in10.0 miSW (230°)6.9 mphClear
3:35 PM75.2 °F55.4 °F50 %30.19 in10.0 miSouth (190°)6.9 mphClear
4:15 PM75.2 °F55.4 °F50 %30.19 in10.0 miSW (220°)11.5 mphClear
4:35 PM75.2 °F55.4 °F50 %30.19 in10.0 miSSW (210°)8.1 mph16.1 mphClear
4:55 PM75.2 °F57.2 °F53 %30.19 in10.0 miSouth (180°)10.4 mphClear
5:15 PM75.2 °F59.0 °F57 %30.18 in10.0 miSSW (200°)10.4 mphClear
5:35 PM71.6 °F55.4 °F57 %30.18 in10.0 miSouth (190°)5.8 mphClear
5:55 PM69.8 °F55.4 °F60 %30.18 in10.0 miSouth (190°)4.6 mphClear
6:15 PM69.8 °F57.2 °F64 %30.18 in10.0 miSouth (190°)5.8 mphClear
6:35 PM69.8 °F57.2 °F64 %30.18 in10.0 miSouth (190°)4.6 mphClear
6:55 PM66.2 °F55.4 °F68 %30.18 in10.0 miSouth (190°)3.5 mphClear
7:15 PM64.4 °F55.4 °F73 %30.18 in10.0 miSouth (190°)3.5 mphClear
7:35 PM62.6 °F53.6 °F72 %30.18 in10.0 miSouth (190°)3.5 mphClear
7:55 PM60.8 °F53.6 °F77 %30.19 in10.0 miSouth (190°)3.5 mphClear
8:15 PM60.8 °F53.6 °F77 %30.19 in10.0 miSSW (200°)3.5 mphClear
8:35 PM60.8 °F53.6 °F77 %30.19 in10.0 miSouth (190°)3.5 mphClear
8:55 PM60.8 °F53.6 °F77 %30.20 in10.0 miSSW (210°)3.5 mphClear
9:15 PM60.8 °F53.6 °F77 %30.20 in10.0 miSW (220°)4.6 mphClear
9:35 PM60.8 °F53.6 °F77 %30.20 in10.0 miSSW (210°)3.5 mphClear
9:55 PM57.2 °F53.6 °F88 %30.19 in10.0 miSSW (200°)4.6 mphClear
10:15 PM60.8 °F53.6 °F77 %30.19 in10.0 miSW (220°)3.5 mphClear
10:35 PM60.8 °F53.6 °F77 %30.19 in10.0 miSW (220°)3.5 mphClear
10:55 PM60.8 °F53.6 °F77 %30.19 in10.0 miSW (230°)3.5 mphClear
11:15 PM59.0 °F53.6 °F82 %30.20 in10.0 miSSW (210°)3.5 mphClear
11:35 PM57.2 °F53.6 °F88 %30.19 in10.0 miSSW (200°)4.6 mphClear
11:55 PM59.0 °F53.6 °F82 %30.19 in10.0 miCalmClear
Hourly data recorded from KLZZ, located miles away from Adamsville, Texas







STORIES FROM OUR PARTNERS